Location: Passau
(48.5830°N, 13.4830°E)
Time: 17:52:04
(UTC+02:00)

SR - Pass Details

Date: 04 August 2021
Orbit: 580 x 874 km, 66.7° (Epoch: 16 September)

Event Time Altitude Azimuth Distance (km) Brightness Sun altitude
Rises 05:00:00 0° 161° (SSE) 3,437 ? -7.1°
Reaches altitude 10° 05:03:31 10° 140° (SE) 2,479 ? -6.6°
Maximum altitude 05:06:46 16° 106° (ESE) 2,075 ? -6.2°
Drops below altitude 10° 05:09:57 10° 71° (ENE) 2,410 ? -5.7°
Sets 05:13:16 0° 50° (NE) 3,290 ? -5.3°
